Miscellaneous Local Product
Issued by NWS Hastings, NE

Home | Current Version | Previous Version | Text Only | Print | Product List | Glossary Off
Versions: 1 2 3 4 5 6 7 8 9 10 11 12 13 14 15 16 17 18 19 20 21 22 23 24 25 26 27 28 29 30 31 32 33 34 35 36 37 38 39 40 41 42 43 44 45 46 47 48 49 50

000
AXUS43 KGID 171002
MISGRI

GID CWA HOURLY WEATHER ROUNDUP
NATIONAL WEATHER SERVICE HASTINGS NE
400 AM CST SAT FEB 17 2018

NOTE: "FAIR" INDICATES FEW OR NO CLOUDS BELOW 12,000 FEET WITH NO
SIGNIFICANT WEATHER AND/OR OBSTRUCTIONS TO VISIBILITY.

...SOUTH CENTRAL NEBRASKA...

CITY           SKY/WX    TMP DP  RH WIND       PRES   REMARKS
GRAND ISLAND   PTCLDY    28  16  60 S15G23    29.85F WCI  16
KEARNEY        PTCLDY    27  19  72 SW17      29.85F WCI  14
HASTINGS       PTCLDY    27  15  61 S13       29.86F WCI  16
ORD            PTCLDY    27  19  72 SW8       29.81F WCI  19
YORK           CLOUDY    27  18  69 S10       29.89F WCI  17
AURORA         CLOUDY    26  16  67 S9        29.86F WCI  16
LEXINGTON      CLEAR     29  19  67 SW16      29.83F WCI  17
HOLDREGE       CLEAR     26  19  74 SW13      29.86S WCI  15
HEBRON         CLOUDY    28  17  62 S3        29.92F

...NEBRASKA PANHANDLE...

CITY           SKY/WX    TMP DP  RH WIND       PRES   REMARKS
CHADRON        CLEAR     17  13  84 SW8       29.89R WCI   7
ALLIANCE       PTCLDY    27  19  72 NW8       29.86R WCI  19
SCOTTSBLUFF    PTCLDY    29  18  63 NW10      29.89S WCI  20
SIDNEY         PTCLDY    28  17  63 NW9       29.90R WCI  19

...WESTERN AND NORTH CENTRAL NEBRASKA...

CITY           SKY/WX    TMP DP  RH WIND       PRES   REMARKS
VALENTINE      PTCLDY    27  23  85 SW5       29.82R WCI  22
AINSWORTH      MOCLDY    30  25  82 NW7       29.80S WCI  23
ONEILL         MOCLDY    28  21  75 S3        29.80F
BROKEN BOW     CLEAR     25  18  74 W6        29.82S WCI  18
IMPERIAL       CLEAR     34  22  61 W14       29.88R WCI  25
NORTH PLATTE   CLEAR     25  18  74 W5        29.84S WCI  19
MCCOOK         CLEAR     25  20  81 SW9       29.87S WCI  15

...EASTERN NEBRASKA...

CITY           SKY/WX    TMP DP  RH WIND       PRES   REMARKS
NORFOLK        CLOUDY    26  17  68 S10       29.85F WCI  16
SO SIOUX CITY  CLOUDY    28  16  60 SE8G20    29.90F WCI  20
TEKAMAH        CLOUDY    27  18  69 SE9       29.93F WCI  18
COLUMBUS       PTCLDY    25  16  68 S9        29.88F WCI  15
ALBION         CLOUDY    28  19  70 S9        29.84F WCI  19
OMAHA EPPLEY   CLOUDY    30  15  53 S12       29.95F WCI  20
OFFUTT AFB     CLOUDY    29  16  58 S13       29.94F WCI  18
MILLARD        CLOUDY    32  16  52 S6        29.95F WCI  26
LINCOLN        CLOUDY    28  15  58 S9        29.93F WCI  19
NEBRASKA CITY  CLOUDY    30  16  57 S13       29.96F WCI  20
BEATRICE       CLOUDY    31  17  57 S9        29.93F WCI  23
FALLS CITY     CLOUDY    30  13  49 SE6       29.98F WCI  24

...NORTHERN KANSAS...

CITY           SKY/WX    TMP DP  RH WIND       PRES   REMARKS
GOODLAND       CLEAR     27  21  78 NW12      29.88R WCI  17
HILL CITY      CLOUDY    21  16  81 NW5       29.90S WCI  15
NORTON         SUNNY     23  14  68 CALM      29.89S
PHILLIPSBURG   CLEAR     23  16  74 NE3       29.92S
SMITH CENTER   CLEAR     23  14  68 S3        29.93S
BELOIT         CLEAR     27  12  54 CALM      29.93F
HAYS           PTCLDY    28  17  63 CALM      29.91R
RUSSELL        CLOUDY    30  17  58 SW9       29.89R WCI  22
CONCORDIA      CLOUDY    27  16  63 S7        29.92F WCI  19
SALINA         CLOUDY    32  19  58 SE9       29.93F WCI  24
TOPEKA         CLOUDY    32  17  54 NE3       30.03F



USA.gov is the U.S. government's official web portal to all federal, state and local government web resources and services.